sat.trackr.live / text

‹ back to catalog

STARLINK-32193

NORAD 60428 · 2024-144D

PAYLOAD ACTIVE UNKNOWN

§ Identity

Operator
Country
US
Launch date
2024-08-12
Launch site
AFETR
Launch vehicle
Mass (kg)
RCS (m²)

Purposes: comms

External: N2YO · Heavens-Above · Gunter

§ Orbital elements

Epoch: 2026-05-25T05:22:12.920160Z

Period
94.11 min
Inclination
53.1600°
Eccentricity
0.0001147
Mean motion
15.30197704 rev/d
Perigee alt
474.4 km
Apogee alt
476.0 km
Semi-major
6,853.4 km
B*
5.0463e-5
RAAN
221.8690°
Arg perigee
77.2433°
Mean anomaly
282.8695°
Rev number
10,106

§ Raw data

STARLINK-321931 60428U 24144D   26145.22376065  .00001136  00000+0  50463-4 0  99962 60428  53.1600 221.8690 0001147  77.2433 282.8695 15.30197704101069

JSON: /api/v1/satellites/60428 · /tle

For live sub-satellite position, see the globe view (requires WebGL).

§ Visibility from observer

Set your observer location to see the next 7 days of passes ≥ 10°. The values pass through the URL so the page stays shareable.

No JS? Fill the form by hand. The geolocation button needs JavaScript.